[[{"header":{"parameterUnit":"m.s-1","parameterCategory":1,"la1":30.2991,"la2":30.254,"lo1":-89.0895,"lo2":-89.0444,"dy":0.0017,"dx":0.0017,"nx":28,"ny":28,"refTime":"2024-03-28T03:00:00:Z","depth":0,"parameterNumber":2,"parameterNumberName":"U-component_of_WINDS"},"data":[0,0,0,0,0,0,0,0,0,0,0,0,0,0,0,0,0,0,0,0,0,0,0,0,0,0,0,0,0,0,0,0,0,0,0,0,0,0,0,0,0,0,0,0,0,0,0,0,0,0,0,0,0,0,0,0,0,0,-0.0776,-0.0776,0,-0.0737,-0.0737,-0.0737,-0.0713,-0.0712,-0.0712,-0.0712,-0.0673,-0.0672,-0.0671,0,0,0,0,0,0,0,0,0,0,0,0,0,-0.0828,-0.0827,-0.0776,-0.0776,-0.0775,-0.0737,-0.0737,-0.0736,-0.0713,-0.0712,-0.0712,-0.0712,-0.0673,-0.0672,-0.0671,0,0,0,0,0,0,0,0,0,0,0,0,0,-0.0799,-0.0827,-0.0777,-0.0759,-0.0757,-0.0738,-0.0737,-0.0736,-0.0713,-0.0712,-0.0712,-0.0712,-0.0673,-0.0672,-0.0671,-0.0666,0,0,-0.0666,-0.0666,0,0,0,0,0,0,0,0,-0.08,-0.0797,-0.0762,-0.076,-0.0758,-0.073,-0.074,-0.0713,-0.0713,-0.073,-0.0712,-0.0712,-0.0692,-0.0689,-0.0682,-0.0664,-0.0662,-0.0666,-0.0665,-0.0665,-0.0664,0,0,0,0,0,0,0,-0.0802,-0.0798,-0.0761,-0.0762,-0.0759,-0.0752,-0.0748,-0.0735,-0.0712,-0.0728,-0.0726,-0.0722,-0.0691,-0.0683,-0.0681,-0.0661,-0.0666,-0.0665,-0.0664,-0.0664,-0.0633,-0.0633,0,0,0,0,0,0,-0.0807,-0.08,-0.0762,-0.076,-0.0779,-0.0751,-0.0747,-0.0739,-0.0712,-0.0708,-0.0722,-0.0721,-0.0686,-0.0683,-0.0679,-0.0669,-0.0665,-0.0663,-0.0663,-0.0633,-0.0633,-0.0633,0,0,0,0,0,0,-0.0809,-0.0804,-0.0764,-0.0779,-0.0774,-0.0751,-0.0742,-0.0738,-0.0731,-0.0708,-0.0703,-0.0719,-0.0686,-0.0681,-0.0668,-0.0668,-0.0663,-0.0661,-0.0633,-0.0633,-0.0633,-0.0651,0,0,0,0,0,0,-0.081,-0.0805,-0.0804,-0.078,-0.0773,-0.0754,-0.0742,-0.0738,-0.0729,-0.0727,-0.0704,-0.07,-0.0685,-0.067,-0.0667,-0.0666,-0.066,-0.0633,-0.0633,-0.0633,-0.065,-0.0651,-0.0652,0,0,0,0,0,-0.0812,-0.0811,-0.0804,-0.0799,-0.0771,-0.0754,-0.0751,-0.0734,-0.0729,-0.0726,-0.0711,-0.0701,-0.0668,-0.0669,-0.0665,-0.0663,-0.0633,-0.0633,-0.0633,-0.065,-0.0651,-0.0652,0,0,0,0,0,0,-0.0837,-0.0808,-0.0799,-0.0791,-0.0775,-0.075,-0.0747,-0.0736,-0.0722,-0.0721,-0.07,-0.0695,-0.0684,-0.0672,-0.0674,-0.0655,-0.0649,-0.0648,-0.0663,-0.0664,-0.0666,-0.0668,-0.0659,0,0,0,0,0,-0.0841,-0.083,-0.0805,-0.08,-0.0792,-0.0771,-0.0763,-0.0751,-0.0734,-0.0728,-0.0711,-0.0695,-0.068,-0.0672,-0.0658,-0.0648,-0.0641,-0.0644,-0.0646,-0.0647,-0.0646,-0.0637,-0.0637,-0.0633,-0.0633,-0.0633,0,0,-0.085,-0.0833,-0.0828,-0.0804,-0.0791,-0.0779,-0.0766,-0.0755,-0.0745,-0.0726,-0.0712,-0.0699,-0.0679,-0.0667,-0.0661,-0.0657,-0.0645,-0.0647,-0.0648,-0.0647,-0.0637,-0.0637,-0.0638,-0.0633,-0.0633,-0.0633,0,0,-0.086,-0.0847,-0.084,-0.0826,-0.0805,-0.079,-0.0788,-0.0764,-0.0754,-0.074,-0.0724,-0.0712,-0.0689,-0.0674,-0.0664,-0.0664,-0.0653,-0.066,-0.0666,-0.0657,-0.0657,-0.0658,-0.0655,-0.0655,-0.0659,-0.0659,-0.066,0,-0.0875,-0.0857,-0.0838,-0.0826,-0.0815,-0.0796,-0.0787,-0.0774,-0.075,-0.0742,-0.0738,-0.0706,-0.0692,-0.0674,-0.0673,-0.0666,-0.0662,-0.0663,-0.0659,-0.0659,-0.0659,-0.0656,-0.0656,-0.066,-0.066,-0.066,-0.066,0,-0.0874,-0.0861,-0.0857,-0.0833,-0.0821,-0.0812,-0.079,-0.078,-0.0768,-0.0753,-0.0736,-0.0718,-0.0698,-0.0693,-0.0682,-0.0672,-0.067,-0.0663,-0.0656,-0.066,-0.0658,-0.0657,-0.0662,-0.0661,-0.0661,-0.0661,0,0,-0.0901,-0.0863,-0.0862,-0.0849,-0.0823,-0.0812,-0.08,-0.078,-0.0771,-0.0754,-0.0742,-0.072,-0.0712,-0.07,-0.0687,-0.0679,-0.0677,-0.0672,-0.0671,-0.0672,-0.0662,-0.0667,-0.0667,-0.0669,-0.0669,-0.0669,-0.0663,0,-0.0906,-0.0884,-0.0864,-0.0848,-0.0835,-0.0814,-0.0803,-0.0785,-0.0769,-0.0755,-0.0738,-0.0722,-0.0714,-0.0706,-0.0697,-0.0679,-0.0674,-0.0679,-0.0656,-0.0656,-0.0661,-0.0666,-0.0672,-0.0668,-0.0662,-0.0662,-0.0662,0,-0.091,-0.0892,-0.0875,-0.0846,-0.084,-0.083,-0.0808,-0.0795,-0.0772,-0.0762,-0.0746,-0.0731,-0.0715,-0.071,-0.0686,-0.069,-0.0679,-0.0668,-0.0667,-0.0664,-0.0659,-0.0661,-0.0666,-0.0665,-0.0661,-0.0661,-0.0661,0,-0.093,-0.0901,-0.0886,-0.0876,-0.0843,-0.0836,-0.0822,-0.0799,-0.0787,-0.0767,-0.0758,-0.0737,-0.0726,-0.0709,-0.0688,-0.0686,-0.0665,-0.0659,-0.0655,-0.0655,-0.0652,-0.0652,-0.0654,-0.0646,-0.0646,-0.0646,-0.0646,0,-0.0937,-0.0927,-0.0893,-0.0884,-0.0871,-0.0847,-0.0835,-0.0819,-0.0798,-0.0784,-0.0764,-0.0751,-0.0725,-0.0708,-0.0691,-0.0673,-0.0668,-0.0658,-0.0653,-0.0659,-0.066,-0.0651,-0.0651,-0.0646,-0.0646,-0.0646,-0.0646,0,-0.0957,-0.0935,-0.0916,-0.0885,-0.0877,-0.0868,-0.0841,-0.083,-0.0813,-0.0795,-0.0789,-0.0761,-0.074,-0.0717,-0.0689,-0.0677,-0.0659,-0.0653,-0.0666,-0.0664,-0.066,-0.066,-0.0655,-0.0652,-0.0648,-0.0648,-0.0648,0,-0.0964,-0.0955,-0.0922,-0.091,-0.0896,-0.0879,-0.0866,-0.0841,-0.0828,-0.0799,-0.0791,-0.0768,-0.0748,-0.0715,-0.0692,-0.0669,-0.0662,-0.0661,-0.0658,-0.0663,-0.0659,-0.066,-0.0658,-0.0663,-0.0663,-0.0663,-0.0663,0,-0.0976,-0.0964,-0.0946,-0.0923,-0.0907,-0.0887,-0.0867,-0.0859,-0.083,-0.0815,-0.0793,-0.0777,-0.0746,-0.0723,-0.0696,-0.0681,-0.0666,-0.0664,-0.0661,-0.0667,-0.0674,-0.0668,-0.0668,-0.0664,-0.0664,-0.0664,-0.0664,-0.0664,-0.0988,-0.0978,-0.0952,-0.0931,-0.0913,-0.0893,-0.0881,-0.086,-0.0841,-0.0814,-0.08,-0.0777,-0.075,-0.0713,-0.0697,-0.0677,-0.0673,-0.067,-0.0669,-0.0669,-0.0669,-0.0677,-0.0673,-0.0673,-0.0673,-0.0673,-0.0673,0,-0.0998,-0.098,-0.0961,-0.0932,-0.0915,-0.0902,-0.0877,-0.0864,-0.0843,-0.082,-0.08,-0.0772,-0.0748,-0.0722,-0.0696,-0.0685,-0.0677,-0.0679,-0.0679,-0.0675,-0.0675,-0.0679,-0.0685,-0.0685,-0.0685,-0.0685,-0.0685,-0.0685,-0.1002,-0.0983,-0.0967,-0.0938,-0.0919,-0.0896,-0.0883,-0.0864,-0.0845,-0.0814,-0.0794,-0.0776,-0.0751,-0.0722,-0.0699,-0.0691,-0.0682,-0.0685,-0.0675,-0.0676,-0.0675,-0.0674,-0.0678,-0.0683,-0.0683,-0.0676,-0.0676,-0.0676]},{"header":{"parameterUnit":"m.s-1","parameterCategory":1,"la1":30.2991,"la2":30.254,"lo1":-89.0895,"lo2":-89.0444,"dy":0.0017,"dx":0.0017,"nx":28,"ny":28,"refTime":"2024-03-28T03:00:00:Z","depth":0,"parameterNumber":3,"parameterNumberName":"V-component_of_WINDS"},"data":[0,0,0,0,0,0,0,0,0,0,0,0,0,0,0,0,0,0,0,0,0,0,0,0,0,0,0,0,0,0,0,0,0,0,0,0,0,0,0,0,0,0,0,0,0,0,0,0,0,0,0,0,0,0,0,0,0,0,-5.3764,-5.3763,0,-5.3713,-5.3712,-5.3712,-5.3713,-5.3714,-5.3714,-5.3715,-5.3656,-5.3654,-5.3651,0,0,0,0,0,0,0,0,0,0,0,0,0,-5.3858,-5.3856,-5.3764,-5.3763,-5.3763,-5.3713,-5.3712,-5.3712,-5.3713,-5.3714,-5.3715,-5.3715,-5.3657,-5.3654,-5.3651,0,0,0,0,0,0,0,0,0,0,0,0,0,-5.3813,-5.3856,-5.3764,-5.3758,-5.3757,-5.3713,-5.3712,-5.3711,-5.3713,-5.3714,-5.3715,-5.3716,-5.3657,-5.3654,-5.3651,-5.3608,0,0,-5.3641,-5.3639,0,0,0,0,0,0,0,0,-5.3815,-5.3809,-5.3759,-5.3758,-5.3757,-5.3721,-5.3724,-5.3677,-5.3712,-5.3729,-5.3715,-5.3716,-5.3676,-5.3671,-5.3659,-5.3606,-5.3603,-5.364,-5.3638,-5.3637,-5.3636,0,0,0,0,0,0,0,-5.3819,-5.3812,-5.3744,-5.3758,-5.3757,-5.3756,-5.375,-5.3715,-5.3697,-5.3728,-5.3728,-5.3722,-5.3675,-5.3662,-5.3658,-5.3602,-5.364,-5.3637,-5.3635,-5.3634,-5.3512,-5.3511,0,0,0,0,0,0,-5.3824,-5.3814,-5.3745,-5.3742,-5.379,-5.3753,-5.3747,-5.3731,-5.3697,-5.3693,-5.3721,-5.3722,-5.3667,-5.3662,-5.3656,-5.3604,-5.3637,-5.3634,-5.3632,-5.3514,-5.3512,-5.3511,0,0,0,0,0,0,-5.3826,-5.3818,-5.3747,-5.3778,-5.3769,-5.375,-5.3732,-5.3729,-5.3716,-5.3693,-5.3689,-5.3711,-5.3668,-5.366,-5.3621,-5.3602,-5.3632,-5.3629,-5.3515,-5.3513,-5.3512,-5.35,0,0,0,0,0,0,-5.3829,-5.3818,-5.3803,-5.3778,-5.3768,-5.3715,-5.3731,-5.3728,-5.3711,-5.3712,-5.3682,-5.3678,-5.3668,-5.3626,-5.3617,-5.3598,-5.3626,-5.3517,-5.3514,-5.3512,-5.3502,-5.3498,-5.3495,0,0,0,0,0,-5.3832,-5.38,-5.3802,-5.3794,-5.3748,-5.3714,-5.3707,-5.3699,-5.371,-5.3693,-5.3679,-5.3679,-5.3606,-5.3622,-5.3612,-5.3591,-5.3518,-5.3515,-5.3512,-5.3503,-5.3499,-5.3495,0,0,0,0,0,0,-5.382,-5.3796,-5.3799,-5.3758,-5.3738,-5.3714,-5.3693,-5.3694,-5.3669,-5.367,-5.3659,-5.3652,-5.3613,-5.3598,-5.3616,-5.3549,-5.3563,-5.3558,-5.3559,-5.3555,-5.3551,-5.3554,-5.3624,0,0,0,0,0,-5.3813,-5.3789,-5.3769,-5.3735,-5.3726,-5.3711,-5.3696,-5.3691,-5.3669,-5.366,-5.3642,-5.3619,-5.3591,-5.3572,-5.3545,-5.3501,-5.3494,-5.3482,-5.3478,-5.3475,-5.347,-5.3446,-5.3441,-5.3502,-5.3502,-5.3502,0,0,-5.3797,-5.3782,-5.3767,-5.3732,-5.3717,-5.369,-5.3704,-5.3675,-5.3655,-5.3655,-5.3617,-5.3604,-5.3577,-5.3535,-5.3516,-5.3522,-5.3453,-5.3472,-5.347,-5.3466,-5.3443,-5.3437,-5.3432,-5.35,-5.35,-5.3501,0,0,-5.3756,-5.3742,-5.3713,-5.3698,-5.3675,-5.3666,-5.3659,-5.3636,-5.3627,-5.359,-5.359,-5.3565,-5.3517,-5.3499,-5.3483,-5.3438,-5.3437,-5.3429,-5.3409,-5.3386,-5.3381,-5.3376,-5.3359,-5.3354,-5.3425,-5.3425,-5.3425,0,-5.3738,-5.3701,-5.3697,-5.3669,-5.3653,-5.3656,-5.3626,-5.361,-5.3579,-5.3567,-5.3576,-5.3517,-5.3499,-5.3453,-5.3443,-5.343,-5.3421,-5.3431,-5.3382,-5.3378,-5.3374,-5.3357,-5.3351,-5.3424,-5.3424,-5.3424,-5.3424,0,-5.368,-5.3655,-5.3633,-5.3606,-5.3589,-5.3559,-5.355,-5.3532,-5.353,-5.3521,-5.3483,-5.3462,-5.3431,-5.3421,-5.3417,-5.3374,-5.3379,-5.3385,-5.3398,-5.3367,-5.3351,-5.3345,-5.3423,-5.3423,-5.3423,-5.3424,0,0,-5.3625,-5.36,-5.3592,-5.358,-5.3557,-5.3536,-5.3507,-5.348,-5.3465,-5.3444,-5.3418,-5.3379,-5.3386,-5.3368,-5.3362,-5.3342,-5.3307,-5.3351,-5.335,-5.3342,-5.3259,-5.3253,-5.3246,-5.3308,-5.3307,-5.3306,-5.326,0,-5.358,-5.3531,-5.3528,-5.3483,-5.3459,-5.3463,-5.3438,-5.342,-5.3411,-5.3388,-5.3377,-5.3349,-5.336,-5.3349,-5.333,-5.3316,-5.329,-5.3319,-5.3282,-5.3281,-5.3287,-5.3238,-5.3231,-5.3189,-5.3254,-5.3253,-5.3253,0,-5.352,-5.3501,-5.3454,-5.3436,-5.3426,-5.3403,-5.3379,-5.3358,-5.3338,-5.3332,-5.3315,-5.3313,-5.3282,-5.3299,-5.3256,-5.3276,-5.3261,-5.3252,-5.325,-5.3245,-5.3263,-5.3229,-5.3175,-5.3168,-5.3243,-5.3244,-5.3245,0,-5.3484,-5.3446,-5.3413,-5.3403,-5.3382,-5.3366,-5.3356,-5.3338,-5.3322,-5.33,-5.329,-5.3264,-5.3249,-5.3229,-5.322,-5.3233,-5.3177,-5.3193,-5.317,-5.317,-5.3155,-5.3156,-5.3097,-5.3149,-5.315,-5.315,-5.315,0,-5.3432,-5.3403,-5.3397,-5.3377,-5.3344,-5.3342,-5.3309,-5.3299,-5.3284,-5.3261,-5.3262,-5.324,-5.3231,-5.3207,-5.32,-5.3165,-5.3158,-5.3152,-5.315,-5.3151,-5.3151,-5.3139,-5.3141,-5.3148,-5.3148,-5.3149,-5.3149,0,-5.3384,-5.3379,-5.3344,-5.3329,-5.3324,-5.3301,-5.3286,-5.3266,-5.3259,-5.323,-5.3223,-5.321,-5.3183,-5.3173,-5.3138,-5.3134,-5.3093,-5.3094,-5.31,-5.3099,-5.3076,-5.3078,-5.3005,-5.2994,-5.3056,-5.3055,-5.3055,0,-5.335,-5.3329,-5.3312,-5.3298,-5.3288,-5.3266,-5.3251,-5.3248,-5.3232,-5.321,-5.3192,-5.3166,-5.3144,-5.3099,-5.3086,-5.306,-5.3059,-5.3036,-5.3055,-5.3056,-5.3057,-5.3058,-5.3055,-5.3031,-5.303,-5.303,-5.3029,0,-5.329,-5.329,-5.327,-5.325,-5.3233,-5.3216,-5.32,-5.3188,-5.3183,-5.3165,-5.3138,-5.3122,-5.3089,-5.3062,-5.3036,-5.3023,-5.3024,-5.3024,-5.3017,-5.3016,-5.302,-5.3016,-5.3088,-5.3025,-5.3025,-5.3026,-5.3026,-5.3026,-5.3247,-5.3229,-5.3215,-5.3193,-5.3182,-5.3167,-5.3148,-5.314,-5.3119,-5.3093,-5.3093,-5.3064,-5.3046,-5.3012,-5.2998,-5.2975,-5.2981,-5.2971,-5.2968,-5.2965,-5.2963,-5.3027,-5.297,-5.297,-5.297,-5.297,-5.297,0,-5.3186,-5.3179,-5.3159,-5.3138,-5.3121,-5.3129,-5.3111,-5.3096,-5.3071,-5.3056,-5.3036,-5.3005,-5.298,-5.2967,-5.2941,-5.2925,-5.2924,-5.2918,-5.2917,-5.2914,-5.2959,-5.2967,-5.2918,-5.2918,-5.2918,-5.2918,-5.2918,-5.2918,-5.3152,-5.3122,-5.312,-5.3084,-5.3076,-5.305,-5.3039,-5.3026,-5.3014,-5.2981,-5.2961,-5.2954,-5.2939,-5.2913,-5.289,-5.2886,-5.2876,-5.2868,-5.2865,-5.2906,-5.2911,-5.2916,-5.2924,-5.2866,-5.2866,-5.2822,-5.2822,-5.2821]}]]